Tracking 18856 objects as of 12-Dec-2017
HD Live streaming from Space Station
objects crossing your sky now

CZ-4 DEB

Track CZ-4 DEB now!
10-day predictions


NORAD ID: 26650
Int'l Code: 1999-057LG
Perigee: 630.7 km
Apogee: 646.0 km
Inclination: 98.5 °
Period: 97.3 minutes
Semi major axis: 7009 km
RCS: 0.0056 m2 (small)
Launch date: October 14, 1999
Source: People's Republic of China (PRC)
Launch site: Taiyaun Space Center, China (TSC)

Note: This is SATELLITE DEBRIS
aabbcc
Your satellite tracking list
Your tracking list is empty




NASA's NSSDC Master Catalog

Two Line Element Set (TLE):
1 26650U 99057LG  17345.25847056  .00000511  00000-0  76454-4 0  9993
2 26650  98.5248  80.8544 0010958 355.0066  31.8339 14.79396851937003
Source of the keplerian elements: AFSPC